Location: Oregon Trail
(41.1872°N, 102.0741°W)
Time: 19:49:04
(UTC+00:00)

BREEZE-M DEB (TANK) - Pass Details

Date: 19 November 2019
Orbit: 398 x 14925 km, 46.0° (Epoch: 05 December)

Event Time Altitude Azimuth Distance (km) Brightness Sun altitude
Exits shadow 12:52:21 13° 292° (WNW) 1,384 4.2 -9.3°
Maximum altitude 12:54:50 82° 204° (SSW) 405 2.1 -8.9°
Drops below altitude 10° 12:57:47 10° 117° (ESE) 1,628 6.9 -8.3°
Sets 13:00:19 0° 117° (ESE) 2,936 8.8 -7.9°
